Location: Beddau
(51.5575°N, 3.3561°W)
Time: 12:44:36
(UTC+00:00)

Cosmos 1844 Rocket - Pass Details

Date: 03 March 2021
Orbit: 826 x 843 km, 71.0° (Epoch: 16 April)

Event Time Altitude Azimuth Distance (km) Brightness Sun altitude
Rises 20:03:31 0° 325° (NW) 3,377 6.6 -20.2°
Reaches altitude 10° 20:06:05 10° 318° (NW) 2,438 5.9 -20.6°
Maximum altitude 20:11:14 40° 251° (WSW) 1,212 3.9 -21.4°
Drops below altitude 10° 20:16:21 10° 184° (S) 2,424 4.9 -22.1°
Enters shadow 20:17:30 - 180° (S) 2,838 5.3 -22.3°
